When you browse on this site, cookies collect data to enhance your experience and personalize the content and advertising you see.
Visit our Privacy Policy to learn more. By continuing to use the site, you agree to this use of cookies and data.
  • In Austria
  • List of Countries
  • For 7 days
  • Water Temperature
  • Weather Map
  • News
  • Weather Widgets
  • user-avatar
    Login

    Hourly Weather Tonhe

    Today, 3 April, Friday

    Time Temperature Precipitation Wind Pressure Humidity
    00:00 +7°C° 0 mm 3 mps 756 mmHg 50%
    01:00 +6°C° 0 mm 4 mps 756 mmHg 50%
    02:00 +5°C° 0 mm 4 mps 756 mmHg 50%
    03:00 +5°C° 0 mm 4 mps 756 mmHg 50%
    04:00 +5°C° 0 mm 4 mps 756 mmHg 50%
    05:00 +5°C° 0 mm 4 mps 756 mmHg 49%
    06:00 +4°C° 0 mm 4 mps 756 mmHg 48%
    07:00 +7°C° 0 mm 4 mps 756 mmHg 42%
    08:00 +10°C° 0 mm 3 mps 756 mmHg 36%
    09:00 +13°C° 0 mm 2 mps 757 mmHg 29%
    10:00 +15°C° 0 mm 2 mps 757 mmHg 27%
    11:00 +16°C° 0 mm 2 mps 756 mmHg 25%
    12:00 +18°C° 0 mm 2 mps 756 mmHg 23%
    13:00 +18°C° 0 mm 2 mps 755 mmHg 24%
    14:00 +18°C° 0 mm 3 mps 755 mmHg 25%
    15:00 +18°C° 0 mm 3 mps 754 mmHg 27%
    16:00 +17°C° 0 mm 3 mps 754 mmHg 31%
    17:00 +15°C° 0 mm 4 mps 754 mmHg 35%
    18:00 +14°C° 0 mm 4 mps 754 mmHg 39%
    19:00 +12°C° 0 mm 4 mps 754 mmHg 42%
    20:00 +10°C° 0 mm 5 mps 755 mmHg 44%
    21:00 +8°C° 0 mm 5 mps 755 mmHg 47%
    22:00 +8°C° 0 mm 5 mps 754 mmHg 46%
    23:00 +7°C° 0 mm 5 mps 754 mmHg 45%

    Tomorrow, 4 April, Saturday

    Time Temperature Precipitation Wind Pressure Humidity
    00:00 +7°C° 0 mm 5 mps 754 mmHg 44%
    01:00 +5°C° 0 mm 6 mps 753 mmHg 49%
    02:00 +5°C° 0 mm 7 mps 753 mmHg 53%
    03:00 +5°C° 0 mm 8 mps 753 mmHg 57%
    04:00 +4°C° 0 mm 7 mps 753 mmHg 64%
    05:00 +4°C° 0 mm 6 mps 753 mmHg 71%
    06:00 +3°C° 0 mm 5 mps 753 mmHg 78%
    07:00 +6°C° 0 mm 5 mps 753 mmHg 72%
    08:00 +7°C° 0 mm 5 mps 754 mmHg 65%
    09:00 +9°C° 0 mm 5 mps 754 mmHg 59%
    10:00 +8°C° 0 mm 5 mps 754 mmHg 60%
    11:00 +8°C° 0 mm 5 mps 754 mmHg 61%
    12:00 +7°C° 0 mm 4 mps 754 mmHg 62%
    13:00 +7°C° 0 mm 5 mps 754 mmHg 57%
    14:00 +8°C° 0 mm 5 mps 754 mmHg 51%
    15:00 +8°C° 0 mm 6 mps 754 mmHg 45%
    16:00 +7°C° 0 mm 5 mps 754 mmHg 44%
    17:00 +7°C° 0 mm 5 mps 755 mmHg 43%
    18:00 +6°C° 0 mm 5 mps 755 mmHg 42%
    19:00 +5°C° 0 mm 5 mps 756 mmHg 45%
    20:00 +3°C° 0 mm 5 mps 756 mmHg 48%
    21:00 +2°C° 0 mm 5 mps 757 mmHg 50%
    22:00 +1°C° 0 mm 5 mps 757 mmHg 49%
    23:00 +1°C° 0 mm 5 mps 757 mmHg 47%

    Day after tomorrow, 5 April, Sunday

    Time Temperature Precipitation Wind Pressure Humidity
    00:00 0°C° 0 mm 5 mps 757 mmHg 45%
    01:00 0°C° 0 mm 4 mps 757 mmHg 46%
    02:00 -1°C° 0 mm 4 mps 756 mmHg 47%
    03:00 0°C° 0 mm 3 mps 756 mmHg 48%
    04:00 0°C° 0 mm 3 mps 756 mmHg 47%
    05:00 0°C° 0 mm 3 mps 756 mmHg 47%
    06:00 -1°C° 0 mm 3 mps 757 mmHg 47%
    07:00 +3°C° 0 mm 2 mps 757 mmHg 39%
    08:00 +6°C° 0 mm 2 mps 757 mmHg 31%
    09:00 +9°C° 0 mm 1 mps 757 mmHg 23%
    10:00 +10°C° 0 mm 2 mps 757 mmHg 23%
    11:00 +12°C° 0 mm 2 mps 757 mmHg 22%
    12:00 +13°C° 0 mm 2 mps 757 mmHg 21%
    13:00 +13°C° 0 mm 2 mps 757 mmHg 23%
    14:00 +13°C° 0 mm 2 mps 756 mmHg 25%
    15:00 +13°C° 0 mm 2 mps 756 mmHg 27%
    16:00 +12°C° 0 mm 2 mps 756 mmHg 31%
    17:00 +11°C° 0 mm 1 mps 756 mmHg 35%
    18:00 +9°C° 0 mm 1 mps 756 mmHg 40%
    19:00 +8°C° 0 mm 1 mps 756 mmHg 42%
    20:00 +6°C° 0 mm 2 mps 757 mmHg 45%
    21:00 +4°C° 0 mm 3 mps 757 mmHg 47%
    22:00 +4°C° 0 mm 3 mps 757 mmHg 47%
    23:00 +4°C° 0 mm 3 mps 757 mmHg 48%

    6 April, Monday

    Time Temperature Precipitation Wind Pressure Humidity
    00:00 +4°C° 0 mm 3 mps 758 mmHg 48%
    01:00 +4°C° 0 mm 2 mps 757 mmHg 48%
    02:00 +4°C° 0 mm 2 mps 757 mmHg 48%
    03:00 +4°C° 0 mm 2 mps 757 mmHg 48%
    04:00 +4°C° 0 mm 2 mps 757 mmHg 49%
    05:00 +4°C° 0 mm 2 mps 757 mmHg 49%
    06:00 +3°C° 0 mm 3 mps 757 mmHg 50%
    07:00 +6°C° 0 mm 2 mps 757 mmHg 43%
    08:00 +10°C° 0 mm 1 mps 757 mmHg 37%
    09:00 +13°C° 0 mm 1 mps 757 mmHg 30%
    10:00 +14°C° 0 mm 1 mps 757 mmHg 28%
    11:00 +16°C° 0 mm 2 mps 757 mmHg 26%
    12:00 +17°C° 0 mm 2 mps 756 mmHg 25%
    13:00 +17°C° 0 mm 2 mps 756 mmHg 26%
    14:00 +17°C° 0 mm 3 mps 755 mmHg 28%
    15:00 +17°C° 0 mm 3 mps 755 mmHg 29%
    16:00 +16°C° 0 mm 3 mps 755 mmHg 34%
    17:00 +14°C° 0 mm 3 mps 754 mmHg 40%
    18:00 +13°C° 0 mm 4 mps 754 mmHg 45%
    19:00 +12°C° 0 mm 3 mps 754 mmHg 47%
    20:00 +11°C° 0 mm 3 mps 755 mmHg 50%
    21:00 +9°C° 0 mm 3 mps 755 mmHg 52%
    22:00 +9°C° 0 mm 3 mps 755 mmHg 54%
    23:00 +7°C° 0 mm 4 mps 755 mmHg 56%

    7 April, Tuesday

    Time Temperature Precipitation Wind Pressure Humidity
    00:00 +7°C° 0 mm 4 mps 755 mmHg 57%
    01:00 +7°C° 0 mm 4 mps 755 mmHg 57%
    02:00 +6°C° 0 mm 4 mps 754 mmHg 56%
    03:00 +6°C° 0 mm 4 mps 754 mmHg 55%
    04:00 +6°C° 0 mm 4 mps 754 mmHg 56%
    05:00 +7°C° 0 mm 3 mps 754 mmHg 57%
    06:00 +7°C° 0 mm 3 mps 754 mmHg 59%
    07:00 +9°C° 0 mm 3 mps 754 mmHg 52%
    08:00 +11°C° 0 mm 3 mps 754 mmHg 45%
    09:00 +13°C° 0 mm 3 mps 754 mmHg 38%
    10:00 +16°C° 0 mm 3 mps 754 mmHg 35%
    11:00 +17°C° 0 mm 3 mps 753 mmHg 32%
    12:00 +19°C° 0 mm 3 mps 753 mmHg 29%
    13:00 +19°C° 0 mm 4 mps 753 mmHg 29%
    14:00 +19°C° 0 mm 4 mps 752 mmHg 29%
    15:00 +20°C° 0 mm 4 mps 752 mmHg 30%
    16:00 +17°C° 0 mm 5 mps 752 mmHg 33%
    17:00 +16°C° 0 mm 5 mps 752 mmHg 37%
    18:00 +15°C° 0 mm 5 mps 752 mmHg 41%
    19:00 +13°C° 0 mm 4 mps 752 mmHg 47%
    20:00 +12°C° 0 mm 4 mps 753 mmHg 53%
    21:00 +11°C° 0 mm 4 mps 753 mmHg 59%
    22:00 +10°C° 0 mm 4 mps 753 mmHg 63%
    23:00 +8°C° 0 mm 4 mps 754 mmHg 67%

    8 April, Wednesday

    Time Temperature Precipitation Wind Pressure Humidity
    00:00 +8°C° 0 mm 4 mps 754 mmHg 71%
    01:00 +8°C° 0.1 mm 3 mps 754 mmHg 77%
    02:00 +8°C° 0.1 mm 3 mps 754 mmHg 83%
    03:00 +7°C° 0.1 mm 3 mps 753 mmHg 88%
    04:00 +6°C° 0.1 mm 2 mps 754 mmHg 89%
    05:00 +6°C° 0.1 mm 2 mps 754 mmHg 90%
    06:00 +6°C° 0.1 mm 2 mps 754 mmHg 91%
    07:00 +7°C° 0.1 mm 2 mps 754 mmHg 74%
    08:00 +8°C° 0.1 mm 2 mps 754 mmHg 57%
    09:00 +10°C° 0.1 mm 3 mps 754 mmHg 40%
    10:00 +11°C° 0 mm 3 mps 754 mmHg 35%
    11:00 +11°C° 0 mm 4 mps 754 mmHg 30%
    12:00 +12°C° 0 mm 5 mps 754 mmHg 25%
    13:00 +13°C° 0 mm 5 mps 754 mmHg 26%
    14:00 +13°C° 0 mm 4 mps 753 mmHg 27%
    15:00 +13°C° 0 mm 4 mps 753 mmHg 28%
    16:00 +12°C° 0 mm 3 mps 753 mmHg 33%
    17:00 +12°C° 0 mm 2 mps 754 mmHg 38%
    18:00 +11°C° 0 mm 1 mps 754 mmHg 43%
    19:00 +9°C° 0 mm 2 mps 754 mmHg 48%
    20:00 +8°C° 0 mm 2 mps 755 mmHg 52%
    21:00 +7°C° 0 mm 3 mps 755 mmHg 57%
    22:00 +7°C° 0 mm 3 mps 755 mmHg 61%
    23:00 +5°C° 0 mm 4 mps 755 mmHg 66%
    Show more